Content
SEND FEEDBACK

Daily
Averages
Monthly
Summary
Turkmenistan

ASHGABAT, TURKMENISTAN


Home > Asia > Turkmenistan
Elevation: 775 feet     Latitude: 37 58N     Longitude: 058 20E

WEATHER
 
SELECT A DAY
Number of Records: 182,391;   Date Range: 3/15/97 - 11/22/14
 
SHARE

PRINT THIS DATA

[ ← Previous Day ]
WEATHER ALMANAC - OCTOBER 12, 2013
[ Next Day → ]
[ °C ]   °F
Weather ElementAverageHighLow
Temperature57.2 °F69.8 °F (3:00 pm)46 °F (5:00 am)
Dewpoint30.6 °F37 °F (2:00 am)24.8 °F (4:00 pm)
Humidity37.7 %62 % (3:00 am)11 % (5:00 pm)
Barometer30.23 in30.34 in (2:00 am)30.15 in (4:00 pm)
Wind Speed3.9 mph11.2 mph (10:30 am)
Weather ElementAverage
Visibility6.1 mi
Wind DirectionENE (66.2 °)

Weather ElementTotal
Precipitation---
Heating Degree Days7.1 (Base 65)
Growing Degree Days7.9 (Base 50)
Averaged from 40 records on October 12, 2013
WEATHER CONDITIONS BREAKOUT
WIND DIRECTION BREAKOUT
WEATHER BY HOUR - OCTOBER 12, 2013
[ °C ]   °F
Local TimeTemperatureDewpointHumidityBarometerVisibilityWind DirectionWind SpeedGust SpeedPrecipitationEventsConditions
1:00 AM53.6 °F33.8 °F47 %30.30 in6.2 miSouth (190°)2.2 mphClear
2:00 AM51.0 °F37.0 °F48 %30.34 in6.0 miCalm
2:00 AM51.8 °F32.0 °F47 %30.30 in6.2 miCalmClear
3:00 AM48.2 °F35.6 °F62 %30.27 in6.2 miNE (40°)2.2 mphClear
4:00 AM48.2 °F33.8 °F58 %30.27 in4.3 miSW (230°)4.5 mphClear
5:00 AM48.2 °F32.0 °F54 %30.27 in5.6 miCalmClear
5:00 AM46.0 °F35.0 °F56 %30.33 in6.0 miCalm
5:30 AM46.4 °F33.8 °F62 %30.27 in6.2 miCalmClear
6:00 AM46.4 °F33.8 °F62 %30.27 in6.2 miVariable2.2 mphClear
6:30 AM46.4 °F33.8 °F62 %30.27 in6.2 miCalmClear
7:00 AM48.2 °F33.8 °F58 %30.27 in6.2 miCalmClear
7:30 AM48.2 °F33.8 °F58 %30.27 in6.2 miCalmClear
8:00 AM46.0 °F34.0 °F53 %30.34 in6.0 miCalm
8:00 AM48.2 °F33.8 °F58 %30.27 in6.2 miVariable2.2 mphClear
8:30 AM53.6 °F33.8 °F47 %30.27 in6.2 miCalmClear
9:00 AM53.6 °F32.0 °F44 %30.27 in6.2 miEast (90°)4.5 mphClear
9:30 AM55.4 °F32.0 °F41 %30.30 in6.2 miEast (90°)4.5 mphClear
10:00 AM59.0 °F32.0 °F36 %30.27 in6.2 miESE (110°)4.5 mphClear
10:30 AM60.8 °F30.2 °F31 %30.27 in6.2 miEast (100°)11.2 mphClear
11:00 AM62.6 °F30.2 °F30 %30.27 in6.2 miEast (100°)8.9 mphClear
11:00 AM60.0 °F32.0 °F22 %30.29 in6.0 miESE (110°)8.9 mph
12:00 PM64.4 °F30.2 °F28 %30.24 in6.2 miEast (100°)8.9 mphClear
1:00 PM68.0 °F26.6 °F21 %30.21 in6.2 miEast (80°)8.9 mphClear
2:00 PM67.0 °F30.0 °F15 %30.21 in6.0 miNNE (20°)6.7 mph
2:00 PM68.0 °F26.6 °F21 %30.18 in6.2 miNE (40°)6.7 mphClear
3:00 PM69.8 °F26.6 °F20 %30.18 in6.2 miESE (110°)6.7 mphClear
4:00 PM69.8 °F24.8 °F18 %30.15 in6.2 miEast (100°)8.9 mphClear
5:00 PM68.0 °F27.0 °F11 %30.17 in6.0 miENE (60°)4.5 mph
5:00 PM68.0 °F24.8 °F20 %30.15 in6.2 miENE (60°)4.5 mphClear
6:00 PM68.0 °F24.8 °F20 %30.15 in6.2 miNE (50°)4.5 mphClear
6:30 PM64.4 °F24.8 °F22 %30.15 in6.2 miENE (60°)4.5 mphClear
7:00 PM64.4 °F26.6 °F24 %30.15 in6.2 miENE (70°)4.5 mphClear
7:30 PM62.6 °F26.6 °F26 %30.15 in6.2 miENE (70°)4.5 mphClear
8:00 PM61.0 °F32.0 °F22 %30.17 in6.0 miENE (70°)4.5 mph
8:00 PM60.8 °F26.6 °F27 %30.15 in6.2 miENE (70°)4.5 mphClear
8:30 PM59.0 °F26.6 °F29 %30.15 in6.2 miVariable2.2 mphClear
9:00 PM59.0 °F26.6 °F29 %30.15 in6.2 miVariable2.2 mphClear
10:00 PM55.4 °F28.4 °F36 %30.15 in6.2 miVariable2.2 mphClear
11:00 PM53.0 °F35.0 °F38 %30.17 in6.0 miSW (220°)4.5 mph
11:00 PM53.6 °F32.0 °F44 %30.15 in6.2 miSSW (210°)4.5 mphClear
Hourly data recorded from UTAA, located miles away from Ashgabat, Turkmenistan







STORIES FROM OUR PARTNERS